K6NC Weather Reports


Display with metric or nautical units.
time (UTC)temp
F
wind
direction
speed
MPH
gust
MPH
rain 1hr
in
rain 24hr
in
rain mn
in
humidity
%
barometer
mb
20260510034530 68 238 4.0 10.0 0.00 0.00 0.00 68 1011.0
20260510034014 68 232 5.0 10.0 0.00 0.00 0.00 67 1011.0
20260510033513 69 252 6.0 10.0 0.00 0.00 0.00 67 1011.0
20260510033030 69 215 4.0 10.0 0.00 0.00 0.00 66 1011.0
20260510032514 70 249 6.0 11.0 0.00 0.00 0.00 66 1010.9
20260510032012 70 231 7.0 11.0 0.00 0.00 0.00 66 1010.9
20260510031530 71 237 7.0 11.0 0.00 0.00 0.00 68 1010.8
20260510031014 71 240 4.0 8.0 0.00 0.00 0.00 68 1010.8
20260510030514 72 219 4.0 8.0 0.00 0.00 0.00 69 1010.8
20260510030028 72 234 3.0 7.0 0.00 0.00 0.00 68 1010.7
20260510025511 72 230 4.0 8.0 0.00 0.00 0.00 67 1010.7
20260510025014 73 225 4.0 8.0 0.00 0.00 0.00 67 1010.6
20260510024528 73 234 4.0 8.0 0.00 0.00 0.00 66 1010.6
20260510024014 74 230 4.0 11.0 0.00 0.00 0.00 65 1010.4
20260510023515 74 242 6.0 11.0 0.00 0.00 0.00 63 1010.4
20260510023032 75 229 5.0 10.0 0.00 0.00 0.00 62 1010.4
20260510022513 75 227 5.0 10.0 0.00 0.00 0.00 62 1010.4
20260510022014 76 245 5.0 11.0 0.00 0.00 0.00 62 1010.4
20260510021531 76 240 6.0 11.0 0.00 0.00 0.00 62 1010.4
20260510021014 77 212 6.0 11.0 0.00 0.00 0.00 62 1010.4
20260510020514 77 203 6.0 14.0 0.00 0.00 0.00 61 1010.4
20260510020028 78 213 7.0 14.0 0.00 0.00 0.00 60 1010.4
20260510015519 78 236 8.0 14.0 0.00 0.00 0.00 59 1010.5
20260510015011 79 226 6.0 12.0 0.00 0.00 0.00 60 1010.5
20260510014529 79 257 8.0 12.0 0.00 0.00 0.00 59 1010.5
20260510014013 79 232 8.0 12.0 0.00 0.00 0.00 60 1010.5
20260510013513 80 246 8.0 13.0 0.00 0.00 0.00 58 1010.5
20260510013028 80 250 9.0 13.0 0.00 0.00 0.00 57 1010.4
20260510012514 81 242 8.0 13.0 0.00 0.00 0.00 57 1010.5
20260510012014 81 225 7.0 14.0 0.00 0.00 0.00 57 1010.4
20260510011530 81 226 6.0 14.0 0.00 0.00 0.00 56 1010.4
20260510011013 82 246 7.0 13.0 0.00 0.00 0.00 55 1010.4
20260510010515 82 238 9.0 14.0 0.00 0.00 0.00 55 1010.4
20260510010027 82 238 8.0 14.0 0.00 0.00 0.00 53 1010.4
20260510005515 83 225 8.0 12.0 0.00 0.00 0.00 52 1010.4
20260510005018 83 217 9.0 13.0 0.00 0.00 0.00 52 1010.4
20260510004527 83 229 8.0 13.0 0.00 0.00 0.00 52 1010.4
20260510004013 83 259 8.0 12.0 0.00 0.00 0.00 51 1010.4
20260510003513 84 240 7.0 13.0 0.00 0.00 0.00 49 1010.4
20260510003030 84 225 8.0 13.0 0.00 0.00 0.00 50 1010.4
20260510002513 85 240 9.0 14.0 0.00 0.00 0.00 49 1010.4
20260510002012 84 225 9.0 14.0 0.00 0.00 0.00 49 1010.4
20260510001528 85 252 8.0 12.0 0.00 0.00 0.00 48 1010.3
20260510001012 85 257 8.0 12.0 0.00 0.00 0.00 50 1010.4
20260510000513 85 271 8.0 12.0 0.00 0.00 0.00 50 1010.4
20260510000034 85 220 9.0 12.0 0.00 0.00 0.00 50 1010.5
20260509235513 85 247 8.0 12.0 0.00 0.00 0.00 50 1010.6
20260509235013 86 238 7.0 11.0 0.00 0.00 0.00 49 1010.6
20260509234539 86 269 6.0 10.0 0.00 0.00 0.00 48 1010.6
20260509234016 86 294 6.0 10.0 0.00 0.00 0.00 48 1010.5
20260509233514 87 242 6.0 10.0 0.00 0.00 0.00 47 1010.6
20260509233031 86 248 4.0 10.0 0.00 0.00 0.00 47 1010.7
20260509232513 87 275 7.0 10.0 0.00 0.00 0.00 46 1010.7
20260509232019 87 320 4.0 9.0 0.00 0.00 0.00 46 1010.6
20260509231529 87 288 4.0 9.0 0.00 0.00 0.00 48 1010.7
20260509231014 87 260 6.0 9.0 0.00 0.00 0.00 47 1010.7
20260509230512 88 263 5.0 11.0 0.00 0.00 0.00 44 1010.7
20260509230031 87 294 6.0 11.0 0.00 0.00 0.00 43 1010.8
20260509225515 87 266 4.0 8.0 0.00 0.00 0.00 39 1010.9
20260509225013 86 289 4.0 8.0 0.00 0.00 0.00 42 1011.0
20260509224540 86 330 2.0 8.0 0.00 0.00 0.00 42 1011.0
20260509224014 87 267 3.0 8.0 0.00 0.00 0.00 45 1011.1
20260509223516 87 239 2.0 8.0 0.00 0.00 0.00 44 1011.2
20260509223054 87 226 3.0 8.0 0.00 0.00 0.00 45 1011.2
20260509222513 86 246 2.0 8.0 0.00 0.00 0.00 43 1011.2
20260509222011 87 266 3.0 8.0 0.00 0.00 0.00 45 1011.4
20260509221532 87 232 5.0 8.0 0.00 0.00 0.00 42 1011.4
20260509221013 86 0 1.0 8.0 0.00 0.00 0.00 45 1011.7
20260509220515 86 294 2.0 8.0 0.00 0.00 0.00 46 1011.6
20260509220027 86 252 1.0 8.0 0.00 0.00 0.00 43 1011.7
20260509215514 85 259 4.0 8.0 0.00 0.00 0.00 47 1011.7
20260509215014 85 291 4.0 10.0 0.00 0.00 0.00 47 1011.8
20260509214528 85 283 5.0 10.0 0.00 0.00 0.00 45 1011.8
20260509214014 84 262 3.0 9.0 0.00 0.00 0.00 46 1011.9
20260509213513 84 281 3.0 11.0 0.00 0.00 0.00 51 1012.0
20260509213029 84 273 5.0 11.0 0.00 0.00 0.00 53 1012.0
20260509212512 85 269 5.0 9.0 0.00 0.00 0.00 52 1012.0
20260509212011 84 323 4.0 9.0 0.00 0.00 0.00 52 1012.1
20260509211529 84 284 2.0 8.0 0.00 0.00 0.00 55 1012.1
20260509211013 84 263 4.0 10.0 0.00 0.00 0.00 52 1012.2
20260509210514 83 279 4.0 10.0 0.00 0.00 0.00 55 1012.2
20260509210030 83 275 2.0 10.0 0.00 0.00 0.00 53 1012.2
20260509205515 83 327 3.0 10.0 0.00 0.00 0.00 57 1012.3
20260509205014 84 234 5.0 10.0 0.00 0.00 0.00 58 1012.4
20260509204530 84 280 3.0 8.0 0.00 0.00 0.00 56 1012.4
20260509204017 84 263 3.0 8.0 0.00 0.00 0.00 57 1012.5
20260509203515 82 211 4.0 8.0 0.00 0.00 0.00 60 1012.6
20260509203036 82 275 1.0 7.0 0.00 0.00 0.00 59 1012.7
20260509202513 83 288 4.0 7.0 0.00 0.00 0.00 57 1012.7
20260509202016 84 235 4.0 8.0 0.00 0.00 0.00 57 1012.7
20260509201532 84 264 2.0 8.0 0.00 0.00 0.00 59 1012.7
20260509201015 83 255 3.0 8.0 0.00 0.00 0.00 59 1012.7
20260509200515 83 212 5.0 8.0 0.00 0.00 0.00 55 1012.8
20260509200032 83 212 2.0 11.0 0.00 0.00 0.00 56 1012.9
20260509195516 82 206 5.0 11.0 0.00 0.00 0.00 56 1013.0
20260509195015 81 219 3.0 8.0 0.00 0.00 0.00 58 1013.0
20260509194532 81 198 2.0 10.0 0.00 0.00 0.00 60 1013.0
20260509194013 82 229 5.0 10.0 0.00 0.00 0.00 59 1013.1
20260509193516 80 218 0.0 10.0 0.00 0.00 0.00 58 1013.1
20260509193032 79 276 3.0 10.0 0.00 0.00 0.00 58 1013.1
20260509192542 79 204 2.0 7.0 0.00 0.00 0.00 63 1013.2
20260509192014 79 217 2.0 7.0 0.00 0.00 0.00 61 1013.3
20260509191530 78 210 1.0 5.0 0.00 0.00 0.00 63 1013.3
20260509191014 78 161 2.0 8.0 0.00 0.00 0.00 59 1013.5
20260509190514 77 209 2.0 8.0 0.00 0.00 0.00 62 1013.5
20260509190031 77 242 1.0 5.0 0.00 0.00 0.00 62 1013.6
20260509185514 77 63 1.0 4.0 0.00 0.00 0.00 64 1013.6
20260509185014 76 259 2.0 7.0 0.00 0.00 0.00 63 1013.7
20260509184541 78 316 2.0 7.0 0.00 0.00 0.00 59 1013.7
20260509184014 77 215 3.0 7.0 0.00 0.00 0.00 62 1013.8
20260509183513 75 220 3.0 5.0 0.00 0.00 0.00 68 1013.8
20260509183030 75 29 2.0 4.0 0.00 0.00 0.00 64 1013.8
20260509182511 74 0 1.0 8.0 0.00 0.00 0.00 67 1013.9
20260509182015 74 244 2.0 10.0 0.00 0.00 0.00 64 1013.9
20260509181528 75 312 4.0 10.0 0.00 0.00 0.00 63 1014.0
20260509181014 74 229 2.0 9.0 0.00 0.00 0.00 66 1014.1
20260509180515 74 315 5.0 9.0 0.00 0.00 0.00 66 1014.1
20260509180035 74 252 3.0 9.0 0.00 0.00 0.00 68 1014.1
20260509175515 73 284 4.0 9.0 0.00 0.00 0.00 66 1014.1
20260509175014 72 271 3.0 8.0 0.00 0.00 0.00 67 1014.1
20260509174532 72 233 4.0 8.0 0.00 0.00 0.00 66 1014.2
20260509174014 72 227 4.0 8.0 0.00 0.00 0.00 67 1014.2
20260509173513 72 257 3.0 6.0 0.00 0.00 0.00 69 1014.2
20260509173030 71 210 3.0 7.0 0.00 0.00 0.00 68 1014.1
20260509172518 70 207 1.0 7.0 0.00 0.00 0.00 68 1014.1
20260509172015 70 169 3.0 7.0 0.00 0.00 0.00 68 1014.2
20260509171528 69 246 3.0 7.0 0.00 0.00 0.00 71 1014.1
20260509171014 69 267 3.0 9.0 0.00 0.00 0.00 70 1014.1
20260509170512 69 275 2.0 9.0 0.00 0.00 0.00 72 1014.2
20260509170045 69 264 3.0 9.0 0.00 0.00 0.00 72 1014.2
20260509165518 68 246 4.0 8.0 0.00 0.00 0.00 73 1014.2
20260509165013 68 208 2.0 8.0 0.00 0.00 0.00 73 1014.2
20260509164530 67 256 2.0 8.0 0.00 0.00 0.00 75 1014.2
20260509164014 66 238 2.0 6.0 0.00 0.00 0.00 72 1014.2
20260509163518 67 229 2.0 6.0 0.00 0.00 0.00 74 1014.2
20260509163029 66 261 2.0 6.0 0.00 0.00 0.00 73 1014.2
20260509162515 66 245 3.0 6.0 0.00 0.00 0.00 74 1014.2
20260509162055 65 232 3.0 6.0 0.00 0.00 0.00 75 1014.3
20260509161530 65 292 2.0 6.0 0.00 0.00 0.00 75 1014.3
20260509161012 64 259 1.0 6.0 0.00 0.00 0.00 77 1014.3
20260509160514 64 223 2.0 6.0 0.00 0.00 0.00 78 1014.2
20260509160028 63 207 3.0 6.0 0.00 0.00 0.00 76 1014.2
20260509155512 63 259 2.0 7.0 0.00 0.00 0.00 77 1014.2
20260509155013 62 213 4.0 7.0 0.00 0.00 0.00 77 1014.2
20260509154528 62 223 2.0 6.0 0.00 0.00 0.00 77 1014.1
20260509154013 61 223 2.0 7.0 0.00 0.00 0.00 79 1014.2
20260509153514 61 202 4.0 7.0 0.00 0.00 0.00 79 1014.2
20260509153031 60 207 3.0 7.0 0.00 0.00 0.00 81 1014.2
20260509152513 60 214 3.0 7.0 0.00 0.00 0.00 81 1014.1
20260509152017 60 221 3.0 7.0 0.00 0.00 0.00 83 1014.1
20260509151530 59 229 2.0 7.0 0.00 0.00 0.00 82 1014.1
20260509151014 59 261 4.0 7.0 0.00 0.00 0.00 84 1014.1
20260509150517 59 232 4.0 7.0 0.00 0.00 0.00 84 1014.1
20260509150029 58 214 3.0 5.0 0.00 0.00 0.00 85 1014.1
20260509145513 58 188 2.0 5.0 0.00 0.00 0.00 86 1014.2
20260509145013 57 188 2.0 4.0 0.00 0.00 0.00 86 1014.2
20260509144533 57 215 2.0 5.0 0.00 0.00 0.00 86 1014.2
20260509144012 57 261 3.0 6.0 0.00 0.00 0.00 87 1014.1
20260509143513 56 246 3.0 6.0 0.00 0.00 0.00 88 1014.1
20260509143030 56 221 2.0 6.0 0.00 0.00 0.00 89 1014.0
20260509142513 56 236 3.0 6.0 0.00 0.00 0.00 89 1014.0
20260509142018 55 262 3.0 8.0 0.00 0.00 0.00 89 1014.0
20260509141539 55 249 3.0 8.0 0.00 0.00 0.00 89 1014.0
20260509141014 55 252 2.0 6.0 0.00 0.00 0.00 89 1013.9
20260509140512 54 263 1.0 4.0 0.00 0.00 0.00 89 1013.9
20260509140030 54 266 1.0 5.0 0.00 0.00 0.00 90 1013.9
20260509135515 54 268 2.0 5.0 0.00 0.00 0.00 91 1013.9
20260509135014 53 273 2.0 4.0 0.00 0.00 0.00 91 1013.9
20260509134533 53 250 1.0 5.0 0.00 0.00 0.00 92 1013.9
20260509134013 52 271 1.0 6.0 0.00 0.00 0.00 92 1013.9
20260509133513 52 217 2.0 6.0 0.00 0.00 0.00 92 1013.9
20260509133033 51 0 0.0 2.0 0.00 0.00 0.00 91 1013.9
20260509132516 51 49 0.0 2.0 0.00 0.00 0.00 91 1013.9
20260509132013 52 49 0.0 3.0 0.00 0.00 0.00 91 1013.8
20260509131530 52 49 0.0 3.0 0.00 0.00 0.00 92 1013.7
20260509131011 52 51 1.0 3.0 0.00 0.00 0.00 92 1013.8
20260509130513 52 35 1.0 3.0 0.00 0.00 0.00 92 1013.7
20260509130030 52 19 0.0 2.0 0.00 0.00 0.00 92 1013.7
20260509125517 52 10 1.0 2.0 0.00 0.00 0.00 91 1013.6
20260509125014 52 311 0.0 2.0 0.00 0.00 0.00 91 1013.6
20260509124529 52 0 0.0 2.0 0.00 0.00 0.00 91 1013.6
20260509124013 51 0 0.0 2.0 0.00 0.00 0.00 91 1013.5
20260509123513 51 0 0.0 0.0 0.00 0.00 0.00 91 1013.5
20260509123032 51 0 0.0 0.0 0.00 0.00 0.00 90 1013.6
20260509122512 51 0 0.0 0.0 0.00 0.00 0.00 90 1013.5
20260509122012 52 0 0.0 0.0 0.00 0.00 0.00 90 1013.5
20260509121531 52 0 0.0 0.0 0.00 0.00 0.00 90 1013.5
20260509121014 53 0 0.0 0.0 0.00 0.00 0.00 90 1013.5
20260509120517 53 0 0.0 0.0 0.00 0.00 0.00 89 1013.5
20260509120029 53 0 0.0 0.0 0.00 0.00 0.00 89 1013.6
20260509115514 53 0 0.0 2.0 0.00 0.00 0.00 90 1013.5
20260509115014 53 0 0.0 2.0 0.00 0.00 0.00 90 1013.6
20260509114533 53 272 1.0 3.0 0.00 0.00 0.00 91 1013.6
20260509114017 53 276 1.0 3.0 0.00 0.00 0.00 91 1013.6
20260509113513 53 277 1.0 3.0 0.00 0.00 0.00 91 1013.6
20260509113030 53 0 0.0 0.0 0.00 0.00 0.00 90 1013.7
20260509112514 53 0 0.0 0.0 0.00 0.00 0.00 90 1013.7
20260509112015 53 0 0.0 0.0 0.00 0.00 0.00 90 1013.7
20260509111531 53 0 0.0 0.0 0.00 0.00 0.00 90 1013.6
20260509111014 53 0 0.0 0.0 0.00 0.00 0.00 90 1013.7
20260509110512 53 0 0.0 0.0 0.00 0.00 0.00 90 1013.7
20260509110032 52 0 0.0 0.0 0.00 0.00 0.00 90 1013.6
20260509105514 52 0 0.0 0.0 0.00 0.00 0.00 90 1013.6
20260509105014 52 0 0.0 0.0 0.00 0.00 0.00 90 1013.6
20260509104536 52 0 0.0 1.0 0.00 0.00 0.00 90 1013.5
20260509104013 52 0 0.0 1.0 0.00 0.00 0.00 90 1013.6
20260509103513 52 0 0.0 1.0 0.00 0.00 0.00 90 1013.6
20260509103031 52 0 0.0 1.0 0.00 0.00 0.00 90 1013.5
20260509102515 52 0 0.0 1.0 0.00 0.00 0.00 90 1013.6
20260509102015 52 0 0.0 0.0 0.00 0.00 0.00 89 1013.6
20260509101536 52 0 0.0 0.0 0.00 0.00 0.00 89 1013.6
20260509101014 53 0 0.0 1.0 0.00 0.00 0.00 88 1013.7
20260509100516 54 0 0.0 1.0 0.00 0.00 0.00 87 1013.7
20260509100031 54 0 0.0 2.0 0.00 0.00 0.00 88 1013.8
20260509095516 54 0 0.0 2.0 0.00 0.00 0.00 88 1013.7
20260509095013 54 0 0.0 2.0 0.00 0.00 0.00 89 1013.7
20260509094534 53 92 0.0 1.0 0.00 0.00 0.00 88 1013.8
20260509094013 53 0 0.0 0.0 0.00 0.00 0.00 89 1013.7
20260509093514 53 0 0.0 1.0 0.00 0.00 0.00 89 1013.7
20260509093031 54 0 0.0 2.0 0.00 0.00 0.00 89 1013.7
20260509092513 53 92 0.0 2.0 0.00 0.00 0.00 89 1013.7
20260509092013 53 92 0.0 2.0 0.00 0.00 0.00 88 1013.7
20260509091531 54 0 1.0 2.0 0.00 0.00 0.00 87 1013.7
20260509091013 54 0 0.0 1.0 0.00 0.00 0.00 86 1013.8
20260509090514 55 0 0.0 1.0 0.00 0.00 0.00 85 1013.7
20260509085513 56 204 0.0 1.0 0.00 0.00 0.00 84 1013.8
20260509085013 55 0 0.0 2.0 0.00 0.00 0.00 85 1013.8
20260509084529 55 0 0.0 3.0 0.00 0.00 0.00 84 1013.8
20260509084015 56 0 0.0 4.0 0.00 0.00 0.00 84 1013.8
20260509083515 57 210 2.0 4.0 0.00 0.00 0.00 84 1013.9
20260509083030 57 222 2.0 5.0 0.00 0.00 0.00 84 1013.9
20260509082514 57 205 2.0 7.0 0.00 0.00 0.00 84 1013.9
20260509082014 57 223 3.0 7.0 0.00 0.00 0.00 84 1014.0
20260509081543 57 232 4.0 7.0 0.00 0.00 0.00 84 1014.0
20260509081014 57 231 4.0 7.0 0.00 0.00 0.00 84 1014.0
20260509080514 57 228 4.0 7.0 0.00 0.00 0.00 84 1014.0
20260509080030 57 208 3.0 6.0 0.00 0.00 0.00 84 1014.1
20260509075513 57 220 3.0 4.0 0.00 0.00 0.00 84 1014.1
20260509075015 58 217 2.0 3.0 0.00 0.00 0.00 84 1014.1
20260509074530 57 198 2.0 4.0 0.00 0.00 0.00 85 1014.2
20260509074013 57 203 2.0 4.0 0.00 0.00 0.00 85 1014.2
20260509073513 58 194 2.0 4.0 0.00 0.00 0.00 85 1014.2
20260509073042 58 195 1.0 4.0 0.00 0.00 0.00 85 1014.1
20260509072514 58 195 2.0 4.0 0.00 0.00 0.00 85 1014.1
20260509072013 58 194 2.0 4.0 0.00 0.00 0.00 85 1014.0
20260509071536 58 188 2.0 4.0 0.00 0.00 0.00 84 1014.1
20260509071012 58 193 2.0 3.0 0.00 0.00 0.00 84 1013.9
20260509070517 59 188 0.0 3.0 0.00 0.00 0.00 84 1013.9
20260509070040 58 0 0.0 3.0 0.00 0.00 0.00 84 1014.0
20260509065517 58 200 1.0 3.0 0.00 0.00 0.00 84 1014.0
20260509065013 58 200 2.0 4.0 0.00 0.00 0.00 84 1014.0
20260509064531 58 186 2.0 4.0 0.00 0.00 0.00 84 1014.1
20260509064017 58 183 2.0 4.0 0.00 0.00 0.00 84 1014.1
20260509063513 58 186 2.0 4.0 0.00 0.00 0.00 84 1014.1
20260509063054 58 172 0.0 4.0 0.00 0.00 0.00 85 1014.1
20260509062511 58 186 1.0 4.0 0.00 0.00 0.00 84 1014.2
20260509062010 59 0 0.0 4.0 0.00 0.00 0.00 83 1014.1
20260509061542 59 0 0.0 4.0 0.00 0.00 0.00 83 1014.2
20260509061012 59 174 1.0 3.0 0.00 0.00 0.00 83 1014.1
20260509060511 59 0 0.0 2.0 0.00 0.00 0.00 84 1014.2
20260509060047 59 182 0.0 2.0 0.00 0.00 0.00 83 1014.1
20260509055511 60 182 0.0 1.0 0.00 0.00 0.00 83 1014.1
20260509055013 60 0 0.0 0.0 0.00 0.00 0.00 84 1014.1
20260509054528 59 0 0.0 0.0 0.00 0.00 0.00 85 1014.1
20260509054010 59 0 0.0 0.0 0.00 0.00 0.00 85 1014.1
20260509053511 59 0 0.0 0.0 0.00 0.00 0.00 84 1014.1
20260509053032 60 0 0.0 0.0 0.00 0.00 0.00 84 1014.1
20260509052510 60 0 0.0 0.0 0.00 0.00 0.00 83 1014.1
20260509052010 60 0 0.0 0.0 0.00 0.00 0.00 83 1014.1
20260509051530 61 0 0.0 0.0 0.00 0.00 0.00 81 1014.0
20260509051010 61 0 0.0 2.0 0.00 0.00 0.00 81 1014.1
20260509050510 62 0 0.0 2.0 0.00 0.00 0.00 80 1014.0
20260509050031 62 0 1.0 2.0 0.00 0.00 0.00 80 1014.0
20260509045510 62 219 1.0 2.0 0.00 0.00 0.00 80 1014.0
20260509045013 63 0 0.0 3.0 0.00 0.00 0.00 80 1014.0
20260509044530 63 0 0.0 3.0 0.00 0.00 0.00 80 1013.9
20260509044012 63 196 2.0 3.0 0.00 0.00 0.00 80 1013.9
20260509043512 64 192 0.0 4.0 0.00 0.00 0.00 79 1013.9
20260509043031 64 0 0.0 5.0 0.00 0.00 0.00 79 1013.9
20260509042516 64 237 2.0 7.0 0.00 0.00 0.00 80 1013.8
20260509042017 64 251 3.0 7.0 0.00 0.00 0.00 80 1013.6
20260509041530 64 252 3.0 7.0 0.00 0.00 0.00 79 1013.5
20260509041012 64 254 3.0 7.0 0.00 0.00 0.00 79 1013.5
20260509040511 65 234 2.0 7.0 0.00 0.00 0.00 79 1013.4
20260509040029 65 232 4.0 7.0 0.00 0.00 0.00 79 1013.4
20260509035514 65 237 3.0 7.0 0.00 0.00 0.00 79 1013.4
20260509035013 66 226 3.0 7.0 0.00 0.00 0.00 79 1013.3